Portsmouth, NH

2:40 PM EDT on April 24, 2017 (GMT -0400)
Pease International Tradeport

Weather History for KPSM - June, 2014

Change the Weather History Date:

Tuesday, June 10, 2014

  Actual Average Record
Temperature  
Mean Temperature 66 °F -  
Max Temperature 75 °F 69 °F 94 °F (1984)
Min Temperature 58 °F 51 °F 35 °F (1988)
Cooling Degree Days 1    
Growing Degree Days 16 (Base 50)    
Moisture  
Dew Point 63 °F    
Average Humidity 92    
Maximum Humidity 100    
Minimum Humidity 75    
Precipitation  
Precipitation 0.09 in - - ()
Sea Level Pressure  
Sea Level Pressure 29.99 in    
Wind  
Wind Speed 6 mph (East)    
Max Wind Speed 15 mph    
Max Gust Speed 18 mph    
Visibility 9 miles    
Events Rain    
Averages and records for this station are not official NWS values.
T = Trace of Precipitation, MM = Missing Value Source: NWS Daily Summary

Daily Weather History Graph

Daily Weather History Graph

Search for Another Location

Airport or City:

Trip Planner

Search our weather history database for the weather conditions in past years. The results will help you decide how hot, cold, wet, or windy it might be!

Date:

Astronomy

Jun. 10, 2014 Rise Set
Actual Time 5:03 AM EDT 8:22 PM EDT
Civil Twilight 4:28 AM EDT 8:57 PM EDT
Nautical Twilight 3:42 AM EDT 9:42 PM EDT
Astronomical Twilight 2:46 AM EDT 10:39 PM EDT
Moon 5:40 PM EDT (6/10) 3:11 AM EDT (6/10)
Length of Visible Light 16h 28m
Length of Day
15h 18m
Waxing Gibbous, 92% of the Moon is Illuminated
Jun 10
Waxing Gibbous
Jun 13
Full
Jun 19
Last Quarter
Jun 27
New
Jul 5
First Quarter

Hourly Weather History & Observations

Time (EDT) Temp. Dew Point Humidity Pressure Visibility Wind Dir Wind Speed Gust Speed Precip Events Conditions
12:58 AM 65.8 °F 57.6 °F 75% 29.97 in 10.0 mi SW 6.9 mph - 0.00 in Rain Light Rain
1:42 AM 64.4 °F 60.8 °F 88% 29.94 in 10.0 mi SSW 5.8 mph - N/A   Overcast
1:58 AM 63.7 °F 61.3 °F 92% 29.95 in 10.0 mi SSW 4.6 mph - 0.00 in   Overcast
2:58 AM 63.7 °F 61.7 °F 93% 29.96 in 10.0 mi SSW 5.8 mph - N/A   Overcast
3:58 AM 62.8 °F 62.4 °F 99% 29.95 in 10.0 mi SSW 5.8 mph - N/A   Overcast
4:58 AM 63.1 °F 62.8 °F 99% 29.95 in 10.0 mi SSW 2.3 mph - N/A   Overcast
5:58 AM 63.3 °F 63.0 °F 99% 29.95 in 10.0 mi SSW 2.3 mph - N/A   Overcast
6:58 AM 64.0 °F 63.9 °F 99% 29.96 in 10.0 mi SSW 3.5 mph - 0.00 in Rain Light Rain
7:58 AM 64.0 °F 64.0 °F 100% 29.97 in 10.0 mi West 3.5 mph - 0.01 in   Overcast
8:58 AM 66.6 °F 66.4 °F 99% 29.97 in 10.0 mi West 5.8 mph - N/A   Overcast
9:58 AM 68.9 °F 67.3 °F 95% 29.95 in 10.0 mi Variable 3.5 mph - N/A   Mostly Cloudy
10:58 AM 72.5 °F 65.8 °F 80% 29.95 in 10.0 mi SW 2.3 mph - N/A   Mostly Cloudy
11:28 AM 73.4 °F 68.0 °F 83% 29.93 in 10.0 mi Variable 3.5 mph - N/A   Mostly Cloudy
11:58 AM 74.1 °F 67.5 °F 80% 29.94 in 10.0 mi Variable 4.6 mph - N/A   Mostly Cloudy
12:58 PM 70.9 °F 67.1 °F 88% 29.95 in 10.0 mi SE 5.8 mph - N/A   Overcast
1:58 PM 68.4 °F 66.9 °F 95% 29.95 in 10.0 mi East 6.9 mph - N/A   Overcast
2:58 PM 67.5 °F 64.6 °F 90% 29.98 in 4.0 mi NE 13.8 mph - 0.00 in   Light Drizzle
3:05 PM 66.2 °F 66.2 °F 100% 29.97 in 1.0 mi ENE 11.5 mph - N/A   Light Drizzle
3:28 PM 64.4 °F 64.4 °F 100% 29.98 in 0.6 mi ENE 6.9 mph - N/A   Light Drizzle
3:43 PM 64.4 °F 64.4 °F 100% 29.98 in 1.5 mi East 6.9 mph - N/A   Light Drizzle
3:58 PM 64.9 °F 64.9 °F 100% 29.99 in 6.0 mi ENE 6.9 mph - 0.04 in   Overcast
4:13 PM 66.2 °F 66.2 °F 100% 29.99 in 3.0 mi ENE 8.1 mph - N/A Rain Light Rain
4:37 PM 66.2 °F 66.2 °F 100% 29.99 in 10.0 mi ENE 11.5 mph 18.4 mph N/A   Overcast
4:58 PM 66.4 °F 66.0 °F 99% 30.02 in 10.0 mi ENE 13.8 mph - 0.04 in   Mostly Cloudy
5:58 PM 66.6 °F 63.7 °F 90% 30.02 in 10.0 mi ENE 12.7 mph - N/A   Mostly Cloudy
6:58 PM 65.1 °F 60.3 °F 84% 30.05 in 10.0 mi ENE 15.0 mph - N/A   Mostly Cloudy
7:58 PM 63.7 °F 57.7 °F 81% 30.07 in 10.0 mi ENE 8.1 mph - N/A   Mostly Cloudy
8:58 PM 61.5 °F 57.0 °F 85% 30.09 in 10.0 mi ENE 5.8 mph - N/A   Mostly Cloudy
9:58 PM 59.9 °F 56.5 °F 88% 30.11 in 10.0 mi NE 4.6 mph - N/A   Mostly Cloudy
10:58 PM 58.6 °F 56.3 °F 92% 30.12 in 10.0 mi NNE 4.6 mph - N/A   Mostly Cloudy
11:58 PM 58.6 °F 55.2 °F 88% 30.12 in 10.0 mi North 4.6 mph - N/A   Scattered Clouds